Home   Weather   Jefferson City   Past weeks
Flag for USA

Past Weather in Jefferson City, Missouri, USA — Yesterday and Last 2 Weeks

Now
53 °F

Sunny.


Feels Like: 52 °F
Forecast: 70 / 43 °F
Wind: 5 mph from East

Location: Jefferson City Memorial Airport

Current Time: Oct 23, 2019 at 11:01:09 am

Latest Report: Oct 23, 2019 at 9:53 am


Visibility: 10 mi

Pressure: 29.97 "Hg

Humidity: 56%

Dew Point: 38 °F

Location of Jefferson CityLocation

Past Weather in Jefferson City — Graph

°F

Jefferson City Temperature Yesterday

Maximum temperature yesterday: 60 °F (at 3:53 pm)
Minimum temperature yesterday: 47 °F (at 6:53 am)
Average temperature yesterday: 52 °F

High & Low Weather Summary for the Past Weeks

 TemperatureHumidityPressure
High74 °F (Oct 8, 4:53 pm)100% (Oct 8, 9:01 am)30.23 "Hg (Oct 8, 9:01 am)
Low36 °F (Oct 12, 6:53 am)28% (Oct 8, 3:02 pm)29.37 "Hg (Oct 21, 4:01 am)
Average55 °F73%29.93 "Hg
* Reported Oct 8 9:01 am — Oct 23 9:53 am, Jefferson City. Weather by CustomWeather, © 2019

Note: Actual official high and low records may vary slightly from our data, if they occured in-between our weather recording intervals... More about our weather records

Advertising

Jefferson City Weather History for the Previous 24 Hours

Scroll right to see more
 ConditionsComfort  
Time TempWeatherWind HumidityBarometerVisibility
9:53 am
Wed, Oct 23
53 °FSunny.5 mph56%29.97 "Hg10 mi
8:53 am49 °FSunny.6 mph64%29.97 "Hg10 mi
7:53 am46 °FPassing clouds.5 mph68%29.96 "Hg10 mi
6:53 am43 °FClear.6 mph76%29.96 "Hg10 mi
5:53 am45 °FClear.5 mph68%29.96 "Hg10 mi
4:53 am45 °FClear.6 mph71%29.95 "Hg10 mi
3:53 am45 °FClear.6 mph68%29.94 "Hg10 mi
2:53 am47 °FClear.5 mph64%29.95 "Hg10 mi
1:53 am46 °FClear.6 mph66%29.95 "Hg10 mi
12:53 am44 °FClear.5 mph73%29.96 "Hg10 mi
11:53 pm
Tue, Oct 22
48 °FClear.3 mph59%29.96 "Hg10 mi
10:53 pm49 °FClear.No wind55%29.99 "Hg10 mi
9:53 pm47 °FClear.No wind64%29.99 "Hg10 mi
8:53 pm48 °FClear.No wind63%29.98 "Hg10 mi
7:53 pm53 °FClear.No wind39%29.98 "Hg10 mi
6:53 pm55 °FClear.7 mph37%29.97 "Hg10 mi
5:53 pm58 °FSunny.12 mph33%29.94 "Hg10 mi
4:53 pm59 °FSunny.23 mph31%29.93 "Hg10 mi
3:53 pm60 °FSunny.25 mph30%29.92 "Hg10 mi
2:53 pm59 °FSunny.24 mph29%29.91 "Hg10 mi
1:53 pm58 °FSunny.20 mph31%29.91 "Hg10 mi
12:53 pm56 °FSunny.18 mph39%29.92 "Hg10 mi
11:53 am54 °FSunny.16 mph45%29.92 "Hg10 mi
Weather by CustomWeather, © 2019

See weather overview